Date String (YYYY-MM-DD hh:mm:ss) UTC,Instrument flags,Ambient pressure (hPa),Sample flow (lpm),Bypass flow (lpm),Sample temperature (°C),Ambient temperature (°C),ASC tube jacket temperature (°C),LED temperature (°C),Box temperature (°C),Sample RH (%),Span deviation,Mass concentration (μg/m³),Mass concentration (μg/m³),Mass concentration (μg/m³)
DateTimeUTC,F1_M11,P_M11,Q1_M11,Q2_M11,T1_M11,T2_M11,T3_M11,T4_M11,T5_M11,U1_M11,ZSPAN_M11,X0_M11,X2_M11,X1_M11
2022-05-29 06:00:00,,0813.3,5.01,0.00,29.6,27.7,00.0,38.6,31.3,11.2,0000.0,0012.64,0003.28,0001.44
2022-05-29 06:01:00,,0813.2,5.00,0.00,29.6,27.8,00.0,38.6,31.3,11.6,0000.0,0012.59,0003.36,0001.47
2022-05-29 06:02:00,,0813.2,5.00,0.00,29.5,28.0,00.0,38.6,31.3,11.6,0000.0,0012.26,0003.37,0001.48
2022-05-29 06:03:00,,0813.1,4.99,0.00,29.6,28.1,00.0,38.6,31.3,11.6,0000.0,0011.38,0003.38,0001.50
2022-05-29 06:04:00,,0813.1,5.00,0.00,29.6,28.1,00.0,38.5,31.3,11.4,0000.0,0011.69,0003.38,0001.51
2022-05-29 06:05:00,,0813.1,5.00,0.00,29.6,28.2,00.0,38.5,31.3,11.5,0000.0,0011.70,0003.38,0001.54
2022-05-29 06:06:00,,0813.0,5.00,0.00,29.6,28.3,00.0,38.5,31.4,11.5,0000.0,0010.62,0003.45,0001.56
2022-05-29 06:07:00,,0812.9,4.99,0.00,29.6,28.3,00.0,38.5,31.4,11.3,0000.0,0010.99,0003.45,0001.58
2022-05-29 06:08:00,,0812.9,5.01,0.00,29.6,28.4,00.0,38.5,31.4,10.8,0000.0,0011.21,0003.48,0001.60
2022-05-29 06:09:00,,0812.9,5.00,0.00,29.6,28.4,00.0,38.5,31.4,10.9,0000.0,0011.14,0003.56,0001.62
2022-05-29 06:10:00,,0813.0,5.00,0.00,29.6,28.5,00.0,38.5,31.4,11.2,0000.0,0011.31,0003.57,0001.62
2022-05-29 06:11:00,,0812.9,5.01,0.00,29.6,28.5,00.0,38.5,31.4,11.2,0000.0,0011.50,0003.58,0001.63
2022-05-29 06:12:00,,0812.9,5.00,0.00,29.6,28.5,00.0,38.5,31.5,11.2,0000.0,0011.06,0003.55,0001.64
2022-05-29 06:13:00,,0812.9,4.99,0.00,29.6,28.6,00.0,38.5,31.5,11.0,0000.0,0011.19,0003.57,0001.65
2022-05-29 06:14:00,,0812.9,5.00,0.00,29.7,28.6,00.0,38.5,31.5,10.9,0000.0,0010.88,0003.56,0001.65
2022-05-29 06:15:00,,0812.8,5.00,0.00,29.7,28.6,00.0,38.6,31.5,10.8,0000.0,0011.06,0003.60,0001.67
2022-05-29 06:16:00,,0812.8,5.00,0.00,29.7,28.6,00.0,38.6,31.5,10.7,0000.0,0011.13,0003.60,0001.66
2022-05-29 06:17:00,,0812.8,5.00,0.00,29.7,28.6,00.0,38.6,31.5,10.8,0000.0,0010.76,0003.60,0001.65
2022-05-29 06:18:00,,0812.8,4.99,0.00,29.7,28.6,00.0,38.6,31.5,10.8,0000.0,0010.37,0003.63,0001.64
2022-05-29 06:19:00,,0812.8,4.99,0.00,29.7,28.7,00.0,38.6,31.5,10.8,0000.0,0010.13,0003.61,0001.64
2022-05-29 06:20:00,,0812.8,5.01,0.00,29.7,28.7,00.0,38.6,31.5,10.8,0000.0,0010.59,0003.57,0001.63
2022-05-29 06:21:00,,0812.8,5.02,0.00,29.7,28.7,00.0,38.6,31.6,10.9,0000.0,0010.59,0003.55,0001.62
2022-05-29 06:22:00,,0812.9,4.99,0.00,29.7,28.7,00.0,38.6,31.6,10.9,0000.0,0010.08,0003.51,0001.61
2022-05-29 06:23:00,,0812.8,5.00,0.00,29.7,28.7,00.0,38.6,31.6,10.8,0000.0,0010.05,0003.54,0001.62
2022-05-29 06:24:00,,0812.8,5.01,0.00,29.7,28.7,00.0,38.6,31.6,10.8,0000.0,0010.03,0003.50,0001.60
2022-05-29 06:25:00,,0812.8,4.99,0.00,29.7,28.8,00.0,38.6,31.6,10.8,0000.0,0010.18,0003.54,0001.61
2022-05-29 06:26:00,,0812.8,5.02,0.00,29.8,28.8,00.0,38.6,31.6,10.8,0000.0,0010.60,0003.51,0001.60
2022-05-29 06:27:00,,0812.8,5.00,0.00,29.8,28.8,00.0,38.7,31.6,10.8,0000.0,0010.92,0003.55,0001.64
2022-05-29 06:28:00,,0812.8,4.99,0.00,29.8,28.8,00.0,38.7,31.6,10.9,0000.0,0010.92,0003.57,0001.67
2022-05-29 06:29:00,,0812.8,5.00,0.00,29.8,28.8,00.0,38.7,31.6,10.9,0000.0,0011.09,0003.51,0001.66
2022-05-29 06:30:00,,0812.8,5.00,0.00,29.8,28.8,00.0,38.7,31.6,11.0,0000.0,0011.18,0003.51,0001.65
2022-05-29 06:31:00,,0812.8,5.00,0.00,29.8,28.8,00.0,38.7,31.7,11.3,0000.0,0010.61,0003.52,0001.65
2022-05-29 06:32:00,,0812.8,5.01,0.00,29.8,28.8,00.0,38.7,31.7,11.4,0000.0,0011.10,0003.61,0001.66
2022-05-29 06:33:00,,0812.8,5.01,0.00,29.8,28.8,00.0,38.7,31.7,11.4,0000.0,0011.41,0003.63,0001.66
2022-05-29 06:34:00,,0812.7,5.01,0.00,29.8,28.8,00.0,38.7,31.7,11.5,0000.0,0011.47,0003.61,0001.65
2022-05-29 06:35:00,,0812.7,5.00,0.00,29.8,28.8,00.0,38.7,31.7,11.6,0000.0,0012.41,0003.65,0001.65
2022-05-29 06:36:00,,0812.8,4.98,0.00,29.8,28.9,00.0,38.7,31.7,11.8,0000.0,0013.82,0003.69,0001.67
2022-05-29 06:37:00,,0812.8,5.01,0.00,29.9,28.9,00.0,38.7,31.7,11.8,0000.0,0013.09,0003.71,0001.67
2022-05-29 06:38:00,,0812.7,5.01,0.00,29.9,28.9,00.0,38.7,31.7,11.8,0000.0,0012.61,0003.69,0001.65
2022-05-29 06:39:00,,0812.8,4.99,0.00,29.8,28.9,00.0,38.8,31.7,11.8,0000.0,0012.66,0003.67,0001.63
2022-05-29 06:40:00,,0812.8,5.00,0.00,29.9,28.9,00.0,38.8,31.7,11.9,0000.0,0013.31,0003.74,0001.66
2022-05-29 06:41:00,,0812.7,5.01,0.00,29.9,28.9,00.0,38.8,31.7,11.9,0000.0,0013.72,0003.73,0001.67
2022-05-29 06:42:00,,0812.7,4.99,0.00,29.9,28.9,00.0,38.8,31.7,11.9,0000.0,0014.85,0003.78,0001.69
2022-05-29 06:43:00,,0812.8,4.99,0.00,29.9,28.9,00.0,38.8,31.7,11.9,0000.0,0014.57,0003.72,0001.70
2022-05-29 06:44:00,,0812.8,5.00,0.00,29.9,28.9,00.0,38.8,31.7,11.9,0000.0,0014.32,0003.73,0001.72
2022-05-29 06:45:00,,0812.8,5.00,0.00,29.9,28.9,00.0,38.8,31.7,12.0,0000.0,0014.30,0003.75,0001.74
2022-05-29 06:46:00,,0812.8,5.00,0.00,29.9,28.9,00.0,38.8,31.7,12.1,0000.0,0013.79,0003.73,0001.76
2022-05-29 06:47:00,,0812.8,5.00,0.00,29.9,28.9,00.0,38.8,31.7,12.1,0000.0,0012.43,0003.62,0001.76
2022-05-29 06:48:00,,0812.8,5.01,0.00,29.9,28.9,00.0,38.8,31.7,12.0,0000.0,0012.43,0003.61,0001.77
2022-05-29 06:49:00,,0812.8,4.99,0.00,29.9,28.8,00.0,38.8,31.7,12.1,0000.0,0012.26,0003.59,0001.78
2022-05-29 06:50:00,,0812.8,5.00,0.00,29.9,28.8,00.0,38.8,31.7,12.2,0000.0,0012.36,0003.57,0001.79
2022-05-29 06:51:00,,0812.8,5.00,0.00,29.9,28.9,00.0,38.8,31.7,12.3,0000.0,0011.41,0003.54,0001.80
2022-05-29 06:52:00,,0812.8,4.99,0.00,29.9,28.9,00.0,38.8,31.7,12.4,0000.0,0012.14,0003.56,0001.82
2022-05-29 06:53:00,,0812.8,5.00,0.00,29.8,28.5,00.0,38.8,31.4,12.4,0000.0,0012.04,0003.53,0001.81
2022-05-29 06:54:00,,0812.7,5.00,0.00,29.6,27.9,00.0,38.8,30.9,12.5,0000.0,0012.18,0003.56,0001.81
2022-05-29 06:55:00,,0812.8,5.01,0.00,29.3,27.4,00.0,38.7,30.5,12.8,0000.0,0012.15,0003.55,0001.82
2022-05-29 06:56:00,,0812.7,4.99,0.00,29.1,26.9,00.0,38.6,30.3,13.0,0000.0,0012.00,0003.50,0001.81
2022-05-29 06:57:00,,0812.7,5.01,0.00,29.0,26.8,00.0,38.5,30.2,13.1,0000.0,0011.82,0003.53,0001.81
2022-05-29 06:58:00,,0812.7,5.00,0.00,28.9,26.8,00.0,38.4,30.3,13.1,0000.0,0012.52,0003.58,0001.81
2022-05-29 06:59:00,,0812.6,5.02,0.00,28.9,26.8,00.0,38.4,30.4,13.2,0000.0,0012.51,0003.58,0001.81
